Find Starlink 4743

NORAD ID: 53787 Int'l Des: 2022-111 Owner: SPXS Country: US Constellation: starlink operational
LEOCIRCULAR

リアルタイム位置

3D地球を読み込み中...

Starlink 4743について

説明を読み込み中...

次回通過

Passes for default location (London). Set your location on the main map for personalized predictions.

高度履歴

Loading altitude history...

軌道要素

1 53787U 22111Q 26121.71637874 -.00002611 00000-0 -14595-3 0 9991
2 53787 53.2176 35.9121 0001659 91.7346 268.3836 15.08853219201706
Epoch: May 1, 2026 • Age: 7 hours

現在のステータス

高度 541.1 km
速度 7.60 km/s
衛星直下点 33.08°N, 36.65°W
打ち上げ日 Sep 11, 2022
運用期間 3.6 years
タイプ internet

技術仕様

分類 Payload
質量 305.00 kg
乾燥質量 290.00 kg
総質量 305.00 kg
長さ 0.20 m
直径 2.80 m
スパン 9.00 m
形状 Box + pan
製造者 SPXS
バスタイプ Starlink
フェーズステータス In Orbit
所有者/国 SPXS/US

Most Searched